Location: Goettingen
(51.5300°N, 9.9433°E)
Time: 14:38:47
(UTC+02:00)

ISS - Pass Details

Date: 22 March 2017
Orbit: 400 x 408 km, 51.6° (Epoch: 27 July)

Event Time Altitude Azimuth Distance (km) Brightness Sun altitude
Exits shadow 03:53:50 16° 137° (SE) 1,196 -1.4 -22.1°
Drops below altitude 10° 03:54:37 10° 132° (SE) 1,495 -0.8 -22.0°
Enters shadow 04:56:05 -58° 310° (NW) 11,250 3.4 -13.4°
